When you browse on this site, cookies collect data to enhance your experience and personalize the content and advertising you see.
Visit our Privacy Policy to learn more. By continuing to use the site, you agree to this use of cookies and data.
  • In Spain
  • List of Countries
  • For 7 days
  • Water Temperature
  • Satellite Maps
  • Weather Map
  • Weather Widgets
  • user-avatar
    Login

    Hourly Weather Umcheno

    Today, 25 June, Tuesday

    Time Temperature Precipitation Wind Pressure Humidity
    00:00 +14°C° 0 mm 3 mps 749 mmHg 77%
    01:00 +14°C° 0 mm 3 mps 749 mmHg 77%
    02:00 +15°C° 0 mm 2 mps 749 mmHg 79%
    03:00 +15°C° 0 mm 2 mps 749 mmHg 79%
    04:00 +15°C° 0 mm 2 mps 750 mmHg 80%
    05:00 +15°C° 0 mm 2 mps 750 mmHg 80%
    06:00 +16°C° 0 mm 3 mps 750 mmHg 74%
    07:00 +18°C° 0 mm 3 mps 751 mmHg 69%
    08:00 +19°C° 0 mm 3 mps 751 mmHg 63%
    09:00 +20°C° 0 mm 3 mps 751 mmHg 61%
    10:00 +21°C° 0 mm 3 mps 751 mmHg 59%
    11:00 +21°C° 0 mm 3 mps 751 mmHg 57%
    12:00 +22°C° 0 mm 3 mps 751 mmHg 56%
    13:00 +22°C° 0 mm 3 mps 751 mmHg 55%
    14:00 +22°C° 0 mm 3 mps 751 mmHg 53%
    15:00 +22°C° 0 mm 3 mps 751 mmHg 58%
    16:00 +23°C° 0 mm 2 mps 751 mmHg 62%
    17:00 +21°C° 0 mm 2 mps 751 mmHg 66%
    18:00 +20°C° 0 mm 2 mps 751 mmHg 68%
    19:00 +18°C° 0 mm 2 mps 751 mmHg 70%
    20:00 +16°C° 0 mm 2 mps 751 mmHg 72%
    21:00 +16°C° 0 mm 1 mps 751 mmHg 75%
    22:00 +15°C° 0 mm 1 mps 751 mmHg 77%
    23:00 +14°C° 0 mm 1 mps 750 mmHg 79%

    Tomorrow, 26 June, Wednesday

    Time Temperature Precipitation Wind Pressure Humidity
    00:00 +13°C° 0 mm 1 mps 750 mmHg 80%
    01:00 +13°C° 0 mm 1 mps 751 mmHg 81%
    02:00 +13°C° 0 mm 1 mps 751 mmHg 82%
    03:00 +13°C° 0 mm 1 mps 751 mmHg 81%
    04:00 +14°C° 0 mm 1 mps 750 mmHg 81%
    05:00 +15°C° 0 mm 1 mps 750 mmHg 80%
    06:00 +16°C° 0 mm 1 mps 750 mmHg 76%
    07:00 +19°C° 0 mm 1 mps 750 mmHg 72%
    08:00 +19°C° 0 mm 2 mps 750 mmHg 68%
    09:00 +20°C° 0 mm 2 mps 749 mmHg 63%
    10:00 +21°C° 0 mm 2 mps 749 mmHg 59%
    11:00 +24°C° 0 mm 2 mps 749 mmHg 55%
    12:00 +24°C° 0 mm 3 mps 748 mmHg 55%
    13:00 +24°C° 0 mm 3 mps 748 mmHg 55%
    14:00 +24°C° 0 mm 3 mps 748 mmHg 55%
    15:00 +24°C° 0 mm 3 mps 747 mmHg 59%
    16:00 +24°C° 0 mm 3 mps 746 mmHg 64%
    17:00 +24°C° 0 mm 3 mps 746 mmHg 68%
    18:00 +21°C° 0 mm 2 mps 745 mmHg 70%
    19:00 +20°C° 0 mm 2 mps 745 mmHg 73%
    20:00 +18°C° 0 mm 2 mps 744 mmHg 76%
    21:00 +17°C° 0 mm 2 mps 744 mmHg 78%
    22:00 +16°C° 0 mm 2 mps 743 mmHg 80%
    23:00 +16°C° 0 mm 3 mps 743 mmHg 83%

    Day after tomorrow, 27 June, Thursday

    Time Temperature Precipitation Wind Pressure Humidity
    00:00 +16°C° 0 mm 3 mps 742 mmHg 85%
    01:00 +14°C° 0 mm 3 mps 741 mmHg 88%
    02:00 +14°C° 0 mm 3 mps 741 mmHg 90%
    03:00 +14°C° 0.4 mm 4 mps 740 mmHg 90%
    04:00 +15°C° 0.4 mm 4 mps 739 mmHg 90%
    05:00 +15°C° 0.4 mm 4 mps 738 mmHg 90%
    06:00 +16°C° 0.1 mm 5 mps 737 mmHg 89%
    07:00 +17°C° 0.1 mm 6 mps 736 mmHg 88%
    08:00 +19°C° 0.1 mm 6 mps 736 mmHg 88%
    09:00 +18°C° 2 mm 7 mps 735 mmHg 90%
    10:00 +18°C° 2 mm 7 mps 734 mmHg 92%
    11:00 +18°C° 2 mm 8 mps 733 mmHg 94%
    12:00 +18°C° 1.3 mm 8 mps 732 mmHg 93%
    13:00 +20°C° 1.3 mm 7 mps 732 mmHg 93%
    14:00 +20°C° 1.3 mm 7 mps 731 mmHg 92%
    15:00 +20°C° 0.3 mm 7 mps 730 mmHg 92%
    16:00 +21°C° 0.3 mm 7 mps 730 mmHg 92%
    17:00 +21°C° 0.3 mm 7 mps 729 mmHg 91%
    18:00 +20°C° 0.2 mm 6 mps 729 mmHg 92%
    19:00 +19°C° 0.2 mm 6 mps 729 mmHg 93%
    20:00 +17°C° 0.2 mm 5 mps 729 mmHg 94%
    21:00 +16°C° 0 mm 5 mps 729 mmHg 94%
    22:00 +15°C° 0 mm 5 mps 728 mmHg 93%
    23:00 +13°C° 0 mm 4 mps 728 mmHg 93%

    28 June, Friday

    Time Temperature Precipitation Wind Pressure Humidity
    00:00 +13°C° 0 mm 5 mps 728 mmHg 93%
    01:00 +12°C° 0 mm 5 mps 728 mmHg 94%
    02:00 +10°C° 0 mm 5 mps 728 mmHg 94%
    03:00 +10°C° 0 mm 5 mps 728 mmHg 93%
    04:00 +11°C° 0 mm 6 mps 728 mmHg 92%
    05:00 +11°C° 0 mm 6 mps 728 mmHg 90%
    06:00 +11°C° 0.1 mm 6 mps 728 mmHg 89%
    07:00 +11°C° 0.1 mm 6 mps 727 mmHg 88%
    08:00 +13°C° 0.1 mm 6 mps 727 mmHg 86%
    09:00 +12°C° 0.2 mm 7 mps 727 mmHg 84%
    10:00 +14°C° 0.2 mm 7 mps 727 mmHg 81%
    11:00 +15°C° 0.2 mm 8 mps 727 mmHg 79%
    12:00 +13°C° 0.3 mm 8 mps 727 mmHg 82%
    13:00 +12°C° 0.3 mm 7 mps 727 mmHg 86%
    14:00 +11°C° 0.3 mm 7 mps 727 mmHg 90%
    15:00 +11°C° 0.3 mm 7 mps 727 mmHg 91%
    16:00 +11°C° 0.3 mm 7 mps 727 mmHg 92%
    17:00 +10°C° 0.3 mm 6 mps 727 mmHg 94%
    18:00 +10°C° 0.2 mm 6 mps 728 mmHg 94%
    19:00 +10°C° 0.2 mm 6 mps 728 mmHg 94%
    20:00 +10°C° 0.2 mm 6 mps 728 mmHg 94%
    21:00 +10°C° 0.3 mm 6 mps 728 mmHg 94%
    22:00 +10°C° 0.3 mm 6 mps 729 mmHg 94%
    23:00 +10°C° 0.3 mm 6 mps 729 mmHg 94%

    29 June, Saturday

    Time Temperature Precipitation Wind Pressure Humidity
    00:00 +10°C° 0.1 mm 6 mps 729 mmHg 93%
    01:00 +9°C° 0.1 mm 6 mps 729 mmHg 93%
    02:00 +9°C° 0.1 mm 5 mps 729 mmHg 92%
    03:00 +8°C° 0 mm 5 mps 729 mmHg 91%
    04:00 +8°C° 0 mm 6 mps 729 mmHg 91%
    05:00 +8°C° 0 mm 6 mps 730 mmHg 90%
    06:00 +8°C° 0 mm 6 mps 730 mmHg 88%
    07:00 +8°C° 0 mm 6 mps 730 mmHg 86%
    08:00 +8°C° 0 mm 6 mps 730 mmHg 84%
    09:00 +8°C° 0.1 mm 7 mps 731 mmHg 85%
    10:00 +8°C° 0.1 mm 7 mps 731 mmHg 85%
    11:00 +6°C° 0.1 mm 7 mps 732 mmHg 85%
    12:00 +6°C° 0.1 mm 7 mps 732 mmHg 86%
    13:00 +6°C° 0.1 mm 7 mps 733 mmHg 86%
    14:00 +6°C° 0.1 mm 7 mps 733 mmHg 87%
    15:00 +6°C° 0.1 mm 7 mps 733 mmHg 88%
    16:00 +7°C° 0.1 mm 6 mps 734 mmHg 89%
    17:00 +5°C° 0.1 mm 6 mps 734 mmHg 90%
    18:00 +6°C° 0.4 mm 5 mps 734 mmHg 92%
    19:00 +7°C° 0.4 mm 5 mps 734 mmHg 94%
    20:00 +7°C° 0.4 mm 5 mps 734 mmHg 95%
    21:00 +7°C° 0.6 mm 5 mps 734 mmHg 95%
    22:00 +7°C° 0.6 mm 5 mps 734 mmHg 95%
    23:00 +7°C° 0.6 mm 5 mps 734 mmHg 95%

    30 June, Sunday

    Time Temperature Precipitation Wind Pressure Humidity
    00:00 +7°C° 0.2 mm 4 mps 734 mmHg 95%
    01:00 +7°C° 0.2 mm 4 mps 735 mmHg 94%
    02:00 +8°C° 0.2 mm 3 mps 735 mmHg 94%
    03:00 +7°C° 0 mm 4 mps 735 mmHg 93%
    04:00 +7°C° 0 mm 4 mps 735 mmHg 91%
    05:00 +7°C° 0 mm 4 mps 735 mmHg 90%
    06:00 +8°C° 0 mm 4 mps 736 mmHg 85%
    07:00 +11°C° 0 mm 4 mps 736 mmHg 80%
    08:00 +12°C° 0 mm 5 mps 737 mmHg 75%
    09:00 +13°C° 0 mm 5 mps 737 mmHg 68%
    10:00 +14°C° 0 mm 5 mps 737 mmHg 62%
    11:00 +16°C° 0 mm 5 mps 738 mmHg 56%
    12:00 +16°C° 0.1 mm 5 mps 738 mmHg 57%
    13:00 +16°C° 0.1 mm 5 mps 738 mmHg 58%
    14:00 +16°C° 0.1 mm 5 mps 738 mmHg 58%
    15:00 +17°C° 0.1 mm 4 mps 738 mmHg 61%
    16:00 +17°C° 0.1 mm 4 mps 739 mmHg 64%
    17:00 +17°C° 0.1 mm 3 mps 739 mmHg 66%
    18:00 +14°C° 0 mm 3 mps 739 mmHg 70%
    19:00 +14°C° 0 mm 2 mps 739 mmHg 74%
    20:00 +12°C° 0 mm 2 mps 740 mmHg 78%
    21:00 +10°C° 0 mm 2 mps 740 mmHg 80%
    22:00 +10°C° 0 mm 2 mps 740 mmHg 82%
    23:00 +9°C° 0 mm 2 mps 740 mmHg 84%
    Show more